| time (UTC) | temp F | wind direction | speed MPH | gust MPH | rain 1hr in | rain 24hr in | rain mn in | humidity % | barometer mb |
| 20260903015644 | 84 | 172 | 5.0 | 8.0 | 0.00 | 0.00 | 0.00 | 40 | 996.8 |
| 20260903015140 | 83 | 194 | 3.0 | 7.0 | 0.00 | 0.00 | 0.00 | 44 | 996.7 |
| 20260903014853 | 81 | 174 | 4.0 | 6.0 | 0.00 | 0.00 | 0.00 | 44 | 997.0 |
| 20260903014130 | 81 | 183 | 6.0 | 7.0 | 0.00 | 0.00 | 0.00 | 44 | 997.0 |
| 20260903013625 | 82 | 178 | 3.0 | 7.0 | 0.00 | 0.00 | 0.00 | 44 | 997.0 |
| 20260903013117 | 82 | 183 | 4.0 | 8.0 | 0.00 | 0.00 | 0.00 | 43 | 997.3 |
| 20260903012617 | 83 | 180 | 4.0 | 8.0 | 0.00 | 0.00 | 0.00 | 43 | 997.4 |
| 20260903012113 | 82 | 170 | 4.0 | 8.0 | 0.00 | 0.00 | 0.00 | 43 | 997.3 |
| 20260903011609 | 83 | 169 | 5.0 | 8.0 | 0.00 | 0.00 | 0.00 | 43 | 997.4 |
| 20260903011318 | 85 | 168 | 6.0 | 7.0 | 0.00 | 0.00 | 0.00 | 39 | 997.5 |
| 20260903010547 | 86 | 174 | 4.0 | 7.0 | 0.00 | 0.00 | 0.00 | 38 | 997.7 |
| 20260903010059 | 84 | 186 | 3.0 | 7.0 | 0.00 | 0.00 | 0.00 | 41 | 997.8 |
| 20260903005543 | 85 | 173 | 5.0 | 9.0 | 0.00 | 0.00 | 0.00 | 41 | 997.9 |
| 20260903005041 | 85 | 186 | 4.0 | 10.0 | 0.00 | 0.00 | 0.00 | 39 | 997.8 |
| 20260903004537 | 86 | 180 | 7.0 | 10.0 | 0.00 | 0.00 | 0.00 | 38 | 998.0 |
| 20260903004032 | 86 | 180 | 3.0 | 7.0 | 0.00 | 0.00 | 0.00 | 39 | 998.0 |
| 20260903003528 | 86 | 173 | 4.0 | 6.0 | 0.00 | 0.00 | 0.00 | 42 | 998.1 |
| 20260903003014 | 85 | 171 | 4.0 | 7.0 | 0.00 | 0.00 | 0.00 | 39 | 998.2 |
| 20260903002510 | 84 | 195 | 3.0 | 7.0 | 0.00 | 0.00 | 0.00 | 43 | 998.2 |
| 20260903002006 | 84 | 177 | 4.0 | 6.0 | 0.00 | 0.00 | 0.00 | 42 | 998.3 |
| 20260903001500 | 84 | 169 | 4.0 | 6.0 | 0.00 | 0.00 | 0.00 | 44 | 998.5 |
| 20260903000956 | 84 | 173 | 5.0 | 6.0 | 0.00 | 0.00 | 0.00 | 42 | 998.6 |
| 20260903000929 | 84 | 182 | 4.0 | 6.0 | 0.00 | 0.00 | 0.00 | 44 | 998.6 |
| 20260903000211 | 84 | 180 | 3.0 | 6.0 | 0.00 | 0.00 | 0.00 | 44 | 998.7 |
| 20260902235443 | 82 | 172 | 4.0 | 6.0 | 0.00 | 0.00 | 0.00 | 46 | 998.6 |
| 20260902234929 | 81 | 191 | 4.0 | 6.0 | 0.00 | 0.00 | 0.00 | 48 | 998.7 |
| 20260902234635 | 79 | 184 | 5.0 | 7.0 | 0.00 | 0.00 | 0.00 | 50 | 998.8 |
| 20260902233910 | 80 | 167 | 4.0 | 7.0 | 0.00 | 0.00 | 0.00 | 47 | 998.8 |
| 20260902233406 | 80 | 175 | 6.0 | 6.0 | 0.00 | 0.00 | 0.00 | 47 | 998.8 |
| 20260902232903 | 78 | 178 | 4.0 | 6.0 | 0.00 | 0.00 | 0.00 | 48 | 998.8 |
| 20260902232600 | 77 | 167 | 4.0 | 6.0 | 0.00 | 0.00 | 0.00 | 49 | 998.9 |
| 20260902231844 | 77 | 186 | 5.0 | 6.0 | 0.00 | 0.00 | 0.00 | 50 | 998.8 |
| 20260902231344 | 78 | 176 | 4.0 | 6.0 | 0.00 | 0.00 | 0.00 | 50 | 998.8 |
| 20260902230844 | 81 | 202 | 4.0 | 6.0 | 0.00 | 0.00 | 0.00 | 47 | 998.7 |
| 20260902230331 | 80 | 180 | 4.0 | 6.0 | 0.00 | 0.00 | 0.00 | 47 | 998.8 |
| 20260902225826 | 79 | 171 | 3.0 | 6.0 | 0.00 | 0.00 | 0.00 | 48 | 998.9 |
| 20260902225322 | 80 | 194 | 3.0 | 6.0 | 0.00 | 0.00 | 0.00 | 46 | 999.0 |
| 20260902224818 | 79 | 180 | 3.0 | 6.0 | 0.00 | 0.00 | 0.00 | 49 | 998.7 |
| 20260902224313 | 78 | 206 | 2.0 | 5.0 | 0.00 | 0.00 | 0.00 | 49 | 999.0 |
| 20260902223759 | 79 | 205 | 2.0 | 5.0 | 0.00 | 0.00 | 0.00 | 48 | 998.9 |
| 20260902223307 | 80 | 171 | 5.0 | 5.0 | 0.00 | 0.00 | 0.00 | 49 | 999.1 |
| 20260902222751 | 79 | 175 | 3.0 | 6.0 | 0.00 | 0.00 | 0.00 | 46 | 999.0 |
| 20260902222247 | 78 | 188 | 3.0 | 6.0 | 0.00 | 0.00 | 0.00 | 48 | 998.9 |
| 20260902221741 | 78 | 173 | 4.0 | 5.0 | 0.00 | 0.00 | 0.00 | 49 | 998.9 |
| 20260902221505 | 77 | 168 | 3.0 | 5.0 | 0.00 | 0.00 | 0.00 | 48 | 998.7 |
| 20260902221003 | 77 | 168 | 4.0 | 5.0 | 0.00 | 0.00 | 0.00 | 47 | 998.8 |
| 20260902220240 | 76 | 171 | 3.0 | 5.0 | 0.00 | 0.00 | 0.00 | 50 | 998.8 |
| 20260902215736 | 76 | 169 | 3.0 | 5.0 | 0.00 | 0.00 | 0.00 | 49 | 998.8 |
| 20260902215232 | 75 | 172 | 4.0 | 5.0 | 0.00 | 0.00 | 0.00 | 51 | 998.7 |
| 20260902214728 | 74 | 179 | 3.0 | 5.0 | 0.00 | 0.00 | 0.00 | 53 | 998.7 |
| 20260902214444 | 74 | 190 | 3.0 | 4.0 | 0.00 | 0.00 | 0.00 | 53 | 998.6 |
| 20260902213721 | 73 | 176 | 3.0 | 4.0 | 0.00 | 0.00 | 0.00 | 53 | 998.6 |
| 20260902213215 | 72 | 172 | 4.0 | 4.0 | 0.00 | 0.00 | 0.00 | 54 | 998.5 |
| 20260902212723 | 70 | 179 | 3.0 | 5.0 | 0.00 | 0.00 | 0.00 | 55 | 998.8 |
| 20260902212210 | 70 | 184 | 3.0 | 5.0 | 0.00 | 0.00 | 0.00 | 56 | 998.6 |
| 20260902211710 | 69 | 180 | 3.0 | 5.0 | 0.00 | 0.00 | 0.00 | 60 | 998.4 |
| 20260902211159 | 68 | 171 | 4.0 | 4.0 | 0.00 | 0.00 | 0.00 | 60 | 998.4 |
| 20260902210654 | 67 | 180 | 3.0 | 5.0 | 0.00 | 0.00 | 0.00 | 61 | 998.3 |
| 20260902210413 | 67 | 172 | 4.0 | 5.0 | 0.00 | 0.00 | 0.00 | 61 | 998.3 |
| 20260902205646 | 67 | 178 | 4.0 | 5.0 | 0.00 | 0.00 | 0.00 | 62 | 998.3 |
| 20260902205141 | 67 | 179 | 3.0 | 5.0 | 0.00 | 0.00 | 0.00 | 61 | 998.3 |
| 20260902204625 | 66 | 184 | 4.0 | 5.0 | 0.00 | 0.00 | 0.00 | 63 | 998.2 |
| 20260902204121 | 64 | 176 | 3.0 | 5.0 | 0.00 | 0.00 | 0.00 | 67 | 998.1 |
| 20260902203618 | 62 | 181 | 4.0 | 5.0 | 0.00 | 0.00 | 0.00 | 69 | 998.2 |
| 20260902203114 | 62 | 179 | 4.0 | 6.0 | 0.00 | 0.00 | 0.00 | 71 | 998.3 |
| 20260902202609 | 61 | 175 | 4.0 | 6.0 | 0.00 | 0.00 | 0.00 | 72 | 998.3 |
| 20260902202045 | 61 | 178 | 5.0 | 6.0 | 0.00 | 0.00 | 0.00 | 73 | 998.2 |
| 20260902201541 | 60 | 182 | 3.0 | 5.0 | 0.00 | 0.00 | 0.00 | 73 | 998.2 |
| 20260902201037 | 60 | 178 | 4.0 | 6.0 | 0.00 | 0.00 | 0.00 | 76 | 998.1 |
| 20260902200533 | 60 | 177 | 5.0 | 6.0 | 0.00 | 0.00 | 0.00 | 78 | 998.2 |
| 20260902200019 | 60 | 171 | 4.0 | 6.0 | 0.00 | 0.00 | 0.00 | 74 | 998.3 |
| 20260902195514 | 59 | 171 | 5.0 | 6.0 | 0.00 | 0.00 | 0.00 | 75 | 998.2 |
| 20260902195010 | 59 | 175 | 4.0 | 6.0 | 0.00 | 0.00 | 0.00 | 76 | 998.3 |
| 20260902194738 | 59 | 172 | 5.0 | 6.0 | 0.00 | 0.00 | 0.00 | 76 | 998.1 |
| 20260902194007 | 59 | 170 | 5.0 | 6.0 | 0.00 | 0.00 | 0.00 | 76 | 998.1 |
| 20260902193507 | 58 | 172 | 4.0 | 6.0 | 0.00 | 0.00 | 0.00 | 78 | 997.9 |
| 20260902193004 | 58 | 171 | 5.0 | 5.0 | 0.00 | 0.00 | 0.00 | 80 | 997.8 |
| 20260902192500 | 58 | 171 | 4.0 | 5.0 | 0.00 | 0.00 | 0.00 | 79 | 997.9 |
| 20260902191956 | 58 | 175 | 4.0 | 5.0 | 0.00 | 0.00 | 0.00 | 79 | 997.8 |
| 20260902191451 | 58 | 177 | 4.0 | 6.0 | 0.00 | 0.00 | 0.00 | 79 | 997.7 |
| 20260902191208 | 58 | 176 | 4.0 | 6.0 | 0.00 | 0.00 | 0.00 | 80 | 997.7 |
| 20260902190639 | 58 | 174 | 4.0 | 5.0 | 0.00 | 0.00 | 0.00 | 81 | 997.6 |
| 20260902185919 | 58 | 172 | 4.0 | 5.0 | 0.00 | 0.00 | 0.00 | 80 | 997.7 |
| 20260902185414 | 58 | 175 | 4.0 | 5.0 | 0.00 | 0.00 | 0.00 | 79 | 997.7 |
| 20260902184910 | 59 | 178 | 4.0 | 6.0 | 0.00 | 0.00 | 0.00 | 78 | 997.5 |
| 20260902184406 | 60 | 173 | 4.0 | 6.0 | 0.00 | 0.00 | 0.00 | 76 | 997.6 |
| 20260902183906 | 59 | 176 | 4.0 | 5.0 | 0.00 | 0.00 | 0.00 | 76 | 997.4 |
| 20260902183405 | 59 | 175 | 5.0 | 5.0 | 0.00 | 0.00 | 0.00 | 76 | 997.3 |
| 20260902182844 | 59 | 173 | 4.0 | 5.0 | 0.00 | 0.00 | 0.00 | 77 | 997.4 |
| 20260902182335 | 59 | 171 | 4.0 | 5.0 | 0.00 | 0.00 | 0.00 | 77 | 997.2 |
| 20260902181835 | 59 | 177 | 4.0 | 5.0 | 0.00 | 0.00 | 0.00 | 77 | 997.3 |
| 20260902181550 | 59 | 172 | 4.0 | 6.0 | 0.00 | 0.00 | 0.00 | 77 | 997.2 |
| 20260902180827 | 58 | 170 | 4.0 | 6.0 | 0.00 | 0.00 | 0.00 | 79 | 997.2 |
| 20260902180321 | 58 | 168 | 5.0 | 5.0 | 0.00 | 0.00 | 0.00 | 79 | 997.1 |
| 20260902175817 | 57 | 174 | 3.0 | 5.0 | 0.00 | 0.00 | 0.00 | 81 | 997.2 |
| 20260902175313 | 57 | 172 | 4.0 | 5.0 | 0.00 | 0.00 | 0.00 | 82 | 997.2 |
| 20260902174808 | 57 | 174 | 4.0 | 5.0 | 0.00 | 0.00 | 0.00 | 83 | 997.3 |
| 20260902174304 | 57 | 170 | 4.0 | 5.0 | 0.00 | 0.00 | 0.00 | 83 | 997.1 |
| 20260902173801 | 58 | 176 | 4.0 | 5.0 | 0.00 | 0.00 | 0.00 | 83 | 997.0 |
| 20260902173257 | 57 | 178 | 4.0 | 5.0 | 0.00 | 0.00 | 0.00 | 83 | 996.9 |
| 20260902173016 | 58 | 177 | 3.0 | 5.0 | 0.00 | 0.00 | 0.00 | 83 | 997.2 |
| 20260902172248 | 58 | 170 | 4.0 | 5.0 | 0.00 | 0.00 | 0.00 | 81 | 997.2 |
| 20260902171941 | 58 | 171 | 5.0 | 5.0 | 0.00 | 0.00 | 0.00 | 82 | 997.2 |
| 20260902171209 | 58 | 175 | 4.0 | 5.0 | 0.00 | 0.00 | 0.00 | 82 | 997.3 |
| 20260902170705 | 58 | 172 | 4.0 | 5.0 | 0.00 | 0.00 | 0.00 | 81 | 997.2 |
| 20260902170424 | 58 | 175 | 3.0 | 5.0 | 0.00 | 0.00 | 0.00 | 81 | 997.3 |
| 20260902165656 | 58 | 173 | 4.0 | 5.0 | 0.00 | 0.00 | 0.00 | 80 | 997.4 |
| 20260902165142 | 59 | 173 | 4.0 | 5.0 | 0.00 | 0.00 | 0.00 | 79 | 997.5 |
| 20260902164628 | 59 | 177 | 3.0 | 6.0 | 0.00 | 0.00 | 0.00 | 78 | 997.4 |
| 20260902164124 | 60 | 173 | 5.0 | 6.0 | 0.00 | 0.00 | 0.00 | 76 | 997.4 |
| 20260902163837 | 60 | 172 | 5.0 | 6.0 | 0.00 | 0.00 | 0.00 | 75 | 997.4 |
| 20260902163115 | 60 | 175 | 5.0 | 6.0 | 0.00 | 0.00 | 0.00 | 76 | 997.5 |
| 20260902162833 | 60 | 164 | 5.0 | 6.0 | 0.00 | 0.00 | 0.00 | 77 | 997.4 |
| 20260902162056 | 60 | 166 | 5.0 | 6.0 | 0.00 | 0.00 | 0.00 | 78 | 997.4 |
| 20260902161543 | 59 | 180 | 5.0 | 5.0 | 0.00 | 0.00 | 0.00 | 77 | 997.6 |
| 20260902161039 | 59 | 170 | 4.0 | 5.0 | 0.00 | 0.00 | 0.00 | 77 | 997.7 |
| 20260902160547 | 60 | 175 | 4.0 | 5.0 | 0.00 | 0.00 | 0.00 | 77 | 997.7 |
| 20260902160044 | 60 | 168 | 4.0 | 5.0 | 0.00 | 0.00 | 0.00 | 78 | 997.6 |
| 20260902155517 | 60 | 172 | 4.0 | 5.0 | 0.00 | 0.00 | 0.00 | 78 | 997.8 |
| 20260902155012 | 60 | 171 | 4.0 | 5.0 | 0.00 | 0.00 | 0.00 | 77 | 997.6 |
| 20260902154508 | 60 | 178 | 4.0 | 5.0 | 0.00 | 0.00 | 0.00 | 77 | 997.8 |
| 20260902154000 | 60 | 176 | 4.0 | 5.0 | 0.00 | 0.00 | 0.00 | 77 | 997.8 |
| 20260902153450 | 59 | 180 | 4.0 | 5.0 | 0.00 | 0.00 | 0.00 | 79 | 997.9 |
| 20260902152936 | 60 | 171 | 4.0 | 6.0 | 0.00 | 0.00 | 0.00 | 78 | 998.0 |
| 20260902152412 | 60 | 179 | 4.0 | 6.0 | 0.00 | 0.00 | 0.00 | 78 | 998.1 |
| 20260902152131 | 60 | 171 | 5.0 | 6.0 | 0.00 | 0.00 | 0.00 | 78 | 998.2 |
| 20260902151401 | 59 | 180 | 4.0 | 6.0 | 0.00 | 0.00 | 0.00 | 78 | 998.4 |
| 20260902150900 | 59 | 176 | 4.0 | 6.0 | 0.00 | 0.00 | 0.00 | 79 | 998.3 |
| 20260902150359 | 59 | 175 | 4.0 | 6.0 | 0.00 | 0.00 | 0.00 | 80 | 998.4 |
| 20260902145859 | 60 | 178 | 4.0 | 6.0 | 0.00 | 0.00 | 0.00 | 79 | 998.4 |
| 20260902145356 | 60 | 174 | 4.0 | 6.0 | 0.00 | 0.00 | 0.00 | 77 | 998.4 |
| 20260902144853 | 60 | 175 | 5.0 | 6.0 | 0.00 | 0.00 | 0.00 | 78 | 998.5 |
| 20260902144348 | 60 | 180 | 4.0 | 6.0 | 0.00 | 0.00 | 0.00 | 80 | 998.5 |
| 20260902143844 | 60 | 175 | 5.0 | 5.0 | 0.00 | 0.00 | 0.00 | 80 | 998.6 |
| 20260902143340 | 61 | 176 | 4.0 | 5.0 | 0.00 | 0.00 | 0.00 | 78 | 998.6 |
| 20260902142826 | 61 | 168 | 4.0 | 6.0 | 0.00 | 0.00 | 0.00 | 76 | 998.6 |
| 20260902142310 | 61 | 174 | 5.0 | 6.0 | 0.00 | 0.00 | 0.00 | 75 | 998.7 |
| 20260902141806 | 62 | 174 | 4.0 | 6.0 | 0.00 | 0.00 | 0.00 | 75 | 998.7 |
| 20260902141253 | 62 | 171 | 4.0 | 5.0 | 0.00 | 0.00 | 0.00 | 75 | 998.7 |
| 20260902140748 | 62 | 176 | 4.0 | 6.0 | 0.00 | 0.00 | 0.00 | 74 | 998.8 |
| 20260902140506 | 61 | 176 | 4.0 | 6.0 | 0.00 | 0.00 | 0.00 | 75 | 998.8 |
| 20260902135729 | 61 | 173 | 5.0 | 5.0 | 0.00 | 0.00 | 0.00 | 78 | 998.7 |
| 20260902135228 | 61 | 171 | 4.0 | 5.0 | 0.00 | 0.00 | 0.00 | 77 | 998.8 |
| 20260902134721 | 62 | 178 | 4.0 | 5.0 | 0.00 | 0.00 | 0.00 | 75 | 998.8 |
| 20260902134225 | 62 | 175 | 4.0 | 5.0 | 0.00 | 0.00 | 0.00 | 74 | 998.9 |
| 20260902133713 | 62 | 176 | 4.0 | 5.0 | 0.00 | 0.00 | 0.00 | 74 | 998.8 |
| 20260902133157 | 62 | 171 | 4.0 | 5.0 | 0.00 | 0.00 | 0.00 | 75 | 998.8 |
| 20260902132658 | 62 | 175 | 4.0 | 5.0 | 0.00 | 0.00 | 0.00 | 75 | 998.8 |
| 20260902132421 | 61 | 185 | 3.0 | 5.0 | 0.00 | 0.00 | 0.00 | 76 | 998.8 |
| 20260902131625 | 61 | 178 | 4.0 | 5.0 | 0.00 | 0.00 | 0.00 | 77 | 999.0 |
| 20260902131111 | 61 | 173 | 4.0 | 5.0 | 0.00 | 0.00 | 0.00 | 77 | 998.8 |
| 20260902130557 | 61 | 176 | 4.0 | 5.0 | 0.00 | 0.00 | 0.00 | 79 | 998.9 |
| 20260902130325 | 61 | 180 | 5.0 | 5.0 | 0.00 | 0.00 | 0.00 | 80 | 999.0 |
| 20260902125549 | 61 | 177 | 4.0 | 5.0 | 0.00 | 0.00 | 0.00 | 79 | 999.0 |
| 20260902125014 | 61 | 177 | 4.0 | 5.0 | 0.00 | 0.00 | 0.00 | 80 | 998.9 |
| 20260902124953 | 61 | 180 | 4.0 | 5.0 | 0.00 | 0.00 | 0.00 | 80 | 998.9 |
| 20260902124215 | 61 | 180 | 4.0 | 5.0 | 0.00 | 0.00 | 0.00 | 79 | 999.1 |
| 20260902123450 | 61 | 174 | 4.0 | 5.0 | 0.00 | 0.00 | 0.00 | 80 | 999.2 |
| 20260902122936 | 61 | 173 | 4.0 | 6.0 | 0.00 | 0.00 | 0.00 | 80 | 999.0 |
| 20260902122422 | 62 | 173 | 4.0 | 6.0 | 0.00 | 0.00 | 0.00 | 78 | 999.2 |
| 20260902121918 | 61 | 177 | 4.0 | 6.0 | 0.00 | 0.00 | 0.00 | 79 | 999.4 |
| 20260902121414 | 61 | 169 | 5.0 | 6.0 | 0.00 | 0.00 | 0.00 | 80 | 999.2 |
| 20260902120909 | 61 | 173 | 4.0 | 6.0 | 0.00 | 0.00 | 0.00 | 82 | 999.2 |
| 20260902120610 | 60 | 176 | 4.0 | 6.0 | 0.00 | 0.00 | 0.00 | 84 | 999.3 |
| 20260902115840 | 61 | 172 | 4.0 | 6.0 | 0.00 | 0.00 | 0.00 | 84 | 999.2 |
| 20260902115602 | 61 | 175 | 4.0 | 6.0 | 0.00 | 0.00 | 0.00 | 83 | 999.3 |
| 20260902115052 | 61 | 178 | 4.0 | 6.0 | 0.00 | 0.00 | 0.00 | 83 | 999.1 |
| 20260902114329 | 61 | 176 | 4.0 | 5.0 | 0.00 | 0.00 | 0.00 | 83 | 999.2 |
| 20260902113824 | 61 | 180 | 2.0 | 5.0 | 0.00 | 0.00 | 0.00 | 83 | 999.3 |
| 20260902113325 | 61 | 172 | 4.0 | 5.0 | 0.00 | 0.00 | 0.00 | 83 | 999.4 |
| 20260902112823 | 61 | 180 | 3.0 | 5.0 | 0.00 | 0.00 | 0.00 | 82 | 999.4 |
| 20260902112319 | 62 | 182 | 2.0 | 5.0 | 0.00 | 0.00 | 0.00 | 81 | 999.5 |
| 20260902111815 | 62 | 175 | 4.0 | 5.0 | 0.00 | 0.00 | 0.00 | 79 | 999.6 |
| 20260902111533 | 63 | 178 | 3.0 | 5.0 | 0.00 | 0.00 | 0.00 | 78 | 999.5 |
| 20260902110807 | 62 | 182 | 3.0 | 5.0 | 0.00 | 0.00 | 0.00 | 78 | 999.4 |
| 20260902110303 | 63 | 178 | 3.0 | 5.0 | 0.00 | 0.00 | 0.00 | 79 | 999.3 |
| 20260902105757 | 64 | 180 | 2.0 | 5.0 | 0.00 | 0.00 | 0.00 | 77 | 999.2 |
| 20260902105253 | 64 | 178 | 4.0 | 5.0 | 0.00 | 0.00 | 0.00 | 75 | 999.1 |
| 20260902104749 | 64 | 175 | 3.0 | 5.0 | 0.00 | 0.00 | 0.00 | 76 | 999.1 |
| 20260902104235 | 64 | 173 | 3.0 | 5.0 | 0.00 | 0.00 | 0.00 | 76 | 999.1 |
| 20260902103730 | 64 | 175 | 4.0 | 5.0 | 0.00 | 0.00 | 0.00 | 77 | 999.1 |
| 20260902103216 | 64 | 171 | 3.0 | 5.0 | 0.00 | 0.00 | 0.00 | 77 | 999.1 |
| 20260902102712 | 64 | 183 | 4.0 | 5.0 | 0.00 | 0.00 | 0.00 | 76 | 999.0 |
| 20260902102208 | 64 | 172 | 3.0 | 5.0 | 0.00 | 0.00 | 0.00 | 75 | 999.0 |
| 20260902101652 | 64 | 176 | 4.0 | 5.0 | 0.00 | 0.00 | 0.00 | 74 | 999.0 |
| 20260902101148 | 64 | 163 | 4.0 | 5.0 | 0.00 | 0.00 | 0.00 | 75 | 998.9 |
| 20260902100902 | 64 | 171 | 4.0 | 5.0 | 0.00 | 0.00 | 0.00 | 77 | 998.9 |
| 20260902100141 | 64 | 174 | 3.0 | 5.0 | 0.00 | 0.00 | 0.00 | 77 | 998.8 |
| 20260902095625 | 64 | 166 | 4.0 | 5.0 | 0.00 | 0.00 | 0.00 | 77 | 998.8 |
| 20260902095121 | 64 | 177 | 3.0 | 5.0 | 0.00 | 0.00 | 0.00 | 77 | 998.8 |
| 20260902094621 | 64 | 178 | 2.0 | 5.0 | 0.00 | 0.00 | 0.00 | 77 | 998.7 |
| 20260902094120 | 65 | 176 | 4.0 | 5.0 | 0.00 | 0.00 | 0.00 | 76 | 998.7 |
| 20260902093620 | 65 | 172 | 4.0 | 5.0 | 0.00 | 0.00 | 0.00 | 76 | 998.7 |
| 20260902093115 | 65 | 170 | 3.0 | 5.0 | 0.00 | 0.00 | 0.00 | 76 | 998.7 |
| 20260902092611 | 65 | 190 | 4.0 | 5.0 | 0.00 | 0.00 | 0.00 | 75 | 998.7 |
| 20260902092329 | 65 | 173 | 4.0 | 5.0 | 0.00 | 0.00 | 0.00 | 75 | 998.7 |
| 20260902091602 | 66 | 178 | 4.0 | 5.0 | 0.00 | 0.00 | 0.00 | 75 | 998.7 |
| 20260902091058 | 66 | 175 | 4.0 | 5.0 | 0.00 | 0.00 | 0.00 | 74 | 998.5 |
| 20260902090552 | 66 | 169 | 4.0 | 5.0 | 0.00 | 0.00 | 0.00 | 74 | 998.7 |
| 20260902090049 | 67 | 171 | 4.0 | 5.0 | 0.00 | 0.00 | 0.00 | 73 | 998.5 |
| 20260902085544 | 67 | 173 | 4.0 | 5.0 | 0.00 | 0.00 | 0.00 | 72 | 998.5 |
| 20260902085040 | 67 | 175 | 4.0 | 5.0 | 0.00 | 0.00 | 0.00 | 71 | 998.5 |
| 20260902084535 | 68 | 171 | 4.0 | 5.0 | 0.00 | 0.00 | 0.00 | 70 | 998.4 |
| 20260902084021 | 68 | 174 | 4.0 | 5.0 | 0.00 | 0.00 | 0.00 | 70 | 998.3 |
| 20260902083529 | 69 | 166 | 3.0 | 5.0 | 0.00 | 0.00 | 0.00 | 70 | 998.4 |
| 20260902083012 | 69 | 160 | 3.0 | 5.0 | 0.00 | 0.00 | 0.00 | 69 | 998.3 |
| 20260902082508 | 69 | 181 | 3.0 | 5.0 | 0.00 | 0.00 | 0.00 | 68 | 998.1 |
| 20260902081953 | 69 | 174 | 3.0 | 5.0 | 0.00 | 0.00 | 0.00 | 68 | 998.2 |
| 20260902081449 | 69 | 172 | 3.0 | 5.0 | 0.00 | 0.00 | 0.00 | 68 | 998.2 |
| 20260902080948 | 69 | 170 | 5.0 | 5.0 | 0.00 | 0.00 | 0.00 | 68 | 998.1 |
| 20260902080448 | 70 | 166 | 3.0 | 5.0 | 0.00 | 0.00 | 0.00 | 67 | 998.1 |
| 20260902075936 | 70 | 179 | 4.0 | 5.0 | 0.00 | 0.00 | 0.00 | 66 | 998.0 |
| 20260902075418 | 71 | 167 | 3.0 | 5.0 | 0.00 | 0.00 | 0.00 | 64 | 998.0 |
| 20260902074931 | 71 | 177 | 3.0 | 4.0 | 0.00 | 0.00 | 0.00 | 61 | 998.0 |
| 20260902074418 | 72 | 176 | 3.0 | 4.0 | 0.00 | 0.00 | 0.00 | 56 | 998.0 |
| 20260902073918 | 73 | 172 | 4.0 | 4.0 | 0.00 | 0.00 | 0.00 | 53 | 997.8 |
| 20260902073414 | 73 | 180 | 4.0 | 4.0 | 0.00 | 0.00 | 0.00 | 54 | 998.0 |
| 20260902072900 | 73 | 180 | 3.0 | 5.0 | 0.00 | 0.00 | 0.00 | 53 | 997.7 |
| 20260902072407 | 73 | 178 | 4.0 | 5.0 | 0.00 | 0.00 | 0.00 | 54 | 997.7 |
| 20260902071839 | 74 | 170 | 4.0 | 5.0 | 0.00 | 0.00 | 0.00 | 53 | 997.7 |
| 20260902071336 | 74 | 184 | 4.0 | 5.0 | 0.00 | 0.00 | 0.00 | 53 | 997.7 |
| 20260902070811 | 75 | 177 | 4.0 | 5.0 | 0.00 | 0.00 | 0.00 | 52 | 997.8 |
| 20260902070308 | 75 | 180 | 4.0 | 5.0 | 0.00 | 0.00 | 0.00 | 53 | 997.7 |
| 20260902065803 | 76 | 160 | 4.0 | 5.0 | 0.00 | 0.00 | 0.00 | 51 | 997.5 |
| 20260902065519 | 76 | 180 | 4.0 | 5.0 | 0.00 | 0.00 | 0.00 | 50 | 997.6 |
| 20260902065020 | 76 | 183 | 3.0 | 6.0 | 0.00 | 0.00 | 0.00 | 49 | 997.6 |
| 20260902064250 | 76 | 175 | 4.0 | 6.0 | 0.00 | 0.00 | 0.00 | 51 | 997.6 |
| 20260902063745 | 76 | 178 | 2.0 | 5.0 | 0.00 | 0.00 | 0.00 | 51 | 997.5 |
| 20260902063241 | 76 | 179 | 4.0 | 5.0 | 0.00 | 0.00 | 0.00 | 50 | 997.3 |
| 20260902062717 | 76 | 185 | 3.0 | 5.0 | 0.00 | 0.00 | 0.00 | 53 | 997.5 |
| 20260902062215 | 76 | 182 | 3.0 | 5.0 | 0.00 | 0.00 | 0.00 | 51 | 997.4 |
| 20260902061715 | 76 | 179 | 2.0 | 5.0 | 0.00 | 0.00 | 0.00 | 51 | 997.3 |
| 20260902061215 | 76 | 178 | 4.0 | 5.0 | 0.00 | 0.00 | 0.00 | 49 | 997.4 |
| 20260902060715 | 76 | 176 | 4.0 | 6.0 | 0.00 | 0.00 | 0.00 | 50 | 997.4 |
| 20260902060214 | 77 | 180 | 3.0 | 6.0 | 0.00 | 0.00 | 0.00 | 49 | 997.4 |
| 20260902055710 | 77 | 177 | 4.0 | 5.0 | 0.00 | 0.00 | 0.00 | 47 | 997.3 |
| 20260902055204 | 78 | 183 | 3.0 | 6.0 | 0.00 | 0.00 | 0.00 | 48 | 997.5 |
| 20260902054908 | 78 | 182 | 3.0 | 6.0 | 0.00 | 0.00 | 0.00 | 47 | 997.4 |
| 20260902053652 | 78 | 173 | 4.0 | 6.0 | 0.00 | 0.00 | 0.00 | 48 | 997.4 |
| 20260902053148 | 77 | 188 | 3.0 | 6.0 | 0.00 | 0.00 | 0.00 | 47 | 997.5 |
| 20260902052644 | 77 | 179 | 3.0 | 7.0 | 0.00 | 0.00 | 0.00 | 49 | 997.7 |
| 20260902052403 | 78 | 168 | 5.0 | 7.0 | 0.00 | 0.00 | 0.00 | 48 | 997.4 |
| 20260902051615 | 79 | 187 | 3.0 | 6.0 | 0.00 | 0.00 | 0.00 | 46 | 997.6 |
| 20260902051321 | 79 | 158 | 5.0 | 6.0 | 0.00 | 0.00 | 0.00 | 45 | 997.7 |
| 20260902050555 | 79 | 181 | 4.0 | 6.0 | 0.00 | 0.00 | 0.00 | 46 | 997.6 |
| 20260902050041 | 79 | 177 | 4.0 | 6.0 | 0.00 | 0.00 | 0.00 | 47 | 997.7 |
| 20260902045537 | 79 | 183 | 4.0 | 5.0 | 0.00 | 0.00 | 0.00 | 45 | 997.7 |
| 20260902045033 | 79 | 166 | 5.0 | 5.0 | 0.00 | 0.00 | 0.00 | 47 | 998.0 |
| 20260902044528 | 79 | 181 | 4.0 | 6.0 | 0.00 | 0.00 | 0.00 | 48 | 997.8 |
| 20260902044014 | 79 | 183 | 3.0 | 6.0 | 0.00 | 0.00 | 0.00 | 46 | 997.7 |
| 20260902043510 | 78 | 178 | 4.0 | 6.0 | 0.00 | 0.00 | 0.00 | 46 | 997.8 |
| 20260902043450 | 79 | 168 | 5.0 | 6.0 | 0.00 | 0.00 | 0.00 | 45 | 998.0 |
| 20260902042451 | 80 | 176 | 3.0 | 6.0 | 0.00 | 0.00 | 0.00 | 45 | 998.3 |
| 20260902041947 | 81 | 175 | 4.0 | 6.0 | 0.00 | 0.00 | 0.00 | 43 | 998.0 |
| 20260902041442 | 80 | 176 | 2.0 | 6.0 | 0.00 | 0.00 | 0.00 | 41 | 998.1 |
| 20260902040954 | 80 | 177 | 5.0 | 6.0 | 0.00 | 0.00 | 0.00 | 45 | 998.3 |
| 20260902040442 | 82 | 176 | 5.0 | 6.0 | 0.00 | 0.00 | 0.00 | 41 | 998.1 |
| 20260902035920 | 81 | 175 | 5.0 | 6.0 | 0.00 | 0.00 | 0.00 | 44 | 998.4 |
| 20260902035411 | 81 | 176 | 4.0 | 6.0 | 0.00 | 0.00 | 0.00 | 47 | 998.3 |
| 20260902034911 | 82 | 183 | 4.0 | 6.0 | 0.00 | 0.00 | 0.00 | 42 | 998.6 |
| 20260902034411 | 82 | 180 | 4.0 | 6.0 | 0.00 | 0.00 | 0.00 | 43 | 998.5 |
| 20260902033911 | 82 | 191 | 4.0 | 6.0 | 0.00 | 0.00 | 0.00 | 41 | 998.6 |
| 20260902033409 | 80 | 184 | 4.0 | 6.0 | 0.00 | 0.00 | 0.00 | 43 | 998.6 |
| 20260902032905 | 80 | 166 | 6.0 | 6.0 | 0.00 | 0.00 | 0.00 | 43 | 998.6 |
| 20260902032401 | 80 | 170 | 6.0 | 6.0 | 0.00 | 0.00 | 0.00 | 43 | 998.8 |
| 20260902031857 | 81 | 175 | 5.0 | 6.0 | 0.00 | 0.00 | 0.00 | 42 | 998.8 |
| 20260902031352 | 82 | 159 | 3.0 | 6.0 | 0.00 | 0.00 | 0.00 | 41 | 999.0 |
| 20260902030848 | 82 | 172 | 5.0 | 6.0 | 0.00 | 0.00 | 0.00 | 43 | 999.0 |
| 20260902030344 | 82 | 175 | 4.0 | 7.0 | 0.00 | 0.00 | 0.00 | 43 | 999.1 |
| 20260902030100 | 83 | 176 | 5.0 | 7.0 | 0.00 | 0.00 | 0.00 | 43 | 999.1 |
| 20260902025335 | 82 | 170 | 5.0 | 6.0 | 0.00 | 0.00 | 0.00 | 42 | 999.2 |
| 20260902024831 | 82 | 166 | 4.0 | 7.0 | 0.00 | 0.00 | 0.00 | 41 | 999.3 |
| 20260902024327 | 82 | 167 | 6.0 | 7.0 | 0.00 | 0.00 | 0.00 | 43 | 999.2 |
| 20260902023823 | 82 | 196 | 6.0 | 7.0 | 0.00 | 0.00 | 0.00 | 39 | 999.5 |
| 20260902023319 | 82 | 187 | 4.0 | 7.0 | 0.00 | 0.00 | 0.00 | 41 | 999.4 |
| 20260902022815 | 81 | 187 | 5.0 | 7.0 | 0.00 | 0.00 | 0.00 | 42 | 999.5 |
| 20260902022311 | 82 | 193 | 4.0 | 7.0 | 0.00 | 0.00 | 0.00 | 40 | 999.8 |
| 20260902022032 | 82 | 180 | 3.0 | 6.0 | 0.00 | 0.00 | 0.00 | 43 | 999.8 |
| 20260902021252 | 82 | 166 | 5.0 | 6.0 | 0.00 | 0.00 | 0.00 | 43 | 1000.0 |
| 20260902020801 | 81 | 166 | 4.0 | 6.0 | 0.00 | 0.00 | 0.00 | 41 | 1000.3 |
| 20260902020244 | 83 | 193 | 3.0 | 6.0 | 0.00 | 0.00 | 0.00 | 41 | 1000.3 |